TimeMST,TemperatureF,Dew PointF,Humidity,Sea Level PressureIn,VisibilityMPH,Wind Direction,Wind SpeedMPH,Gust SpeedMPH,PrecipitationIn,Events,Conditions,WindDirDegrees,DateUTC
12:15 AM,30.2,21.2,69,30.29,10.0,SSW,4.6,-,N/A,,Clear,200,2013-01-25 07:15:00
12:35 AM,32.0,21.2,64,30.29,10.0,South,5.8,-,N/A,,Clear,190,2013-01-25 07:35:00
12:55 AM,33.8,23.0,65,30.30,10.0,SSW,4.6,-,N/A,,Clear,200,2013-01-25 07:55:00
1:15 AM,32.0,23.0,69,30.31,10.0,Calm,Calm,-,N/A,,Clear,0,2013-01-25 08:15:00
1:35 AM,32.0,23.0,69,30.32,10.0,Calm,Calm,-,N/A,,Clear,0,2013-01-25 08:35:00
1:55 AM,28.4,21.2,74,30.33,10.0,ESE,6.9,-,N/A,,Clear,120,2013-01-25 08:55:00
2:15 AM,30.2,21.2,69,30.33,10.0,ESE,5.8,-,N/A,,Clear,110,2013-01-25 09:15:00
2:35 AM,30.2,24.8,80,30.33,10.0,East,3.5,-,N/A,,Clear,90,2013-01-25 09:35:00
2:55 AM,30.2,24.8,80,30.31,10.0,ENE,3.5,-,N/A,,Clear,60,2013-01-25 09:55:00
3:15 AM,30.2,24.8,80,30.30,10.0,ENE,3.5,-,N/A,,Clear,70,2013-01-25 10:15:00
3:35 AM,35.6,26.6,70,30.30,10.0,SW,5.8,-,N/A,,Clear,230,2013-01-25 10:35:00
3:55 AM,33.8,24.8,70,30.30,10.0,WSW,3.5,-,N/A,,Clear,240,2013-01-25 10:55:00
4:15 AM,30.2,23.0,75,30.30,10.0,Calm,Calm,-,N/A,,Clear,0,2013-01-25 11:15:00
4:35 AM,30.2,24.8,80,30.31,10.0,ESE,6.9,-,N/A,,Clear,120,2013-01-25 11:35:00
4:55 AM,28.4,24.8,86,30.30,10.0,East,6.9,-,N/A,,Clear,80,2013-01-25 11:55:00
5:15 AM,30.2,24.8,80,30.30,10.0,ENE,3.5,-,N/A,,Clear,70,2013-01-25 12:15:00
5:35 AM,30.2,24.8,80,30.29,10.0,Calm,Calm,-,N/A,,Clear,0,2013-01-25 12:35:00
5:55 AM,28.4,26.6,93,30.30,10.0,ENE,3.5,-,N/A,,Clear,60,2013-01-25 12:55:00
6:35 AM,26.6,21.2,80,30.32,10.0,Calm,Calm,-,N/A,,Clear,0,2013-01-25 13:35:00
6:55 AM,28.4,21.2,74,30.32,10.0,NNE,5.8,-,N/A,,Partly Cloudy,20,2013-01-25 13:55:00
7:15 AM,28.4,23.0,80,30.32,10.0,NE,3.5,-,N/A,,Scattered Clouds,40,2013-01-25 14:15:00
7:35 AM,28.4,23.0,80,30.32,10.0,NE,3.5,-,N/A,,Scattered Clouds,50,2013-01-25 14:35:00
7:55 AM,28.4,23.0,80,30.33,10.0,ENE,3.5,-,N/A,,Clear,60,2013-01-25 14:55:00
8:15 AM,26.6,24.8,93,30.34,10.0,NNW,4.6,-,N/A,,Scattered Clouds,330,2013-01-25 15:15:00
8:35 AM,28.4,24.8,86,30.35,10.0,NW,3.5,-,N/A,,Mostly Cloudy,320,2013-01-25 15:35:00
8:55 AM,33.8,26.6,75,30.35,10.0,Calm,Calm,-,N/A,,Overcast,0,2013-01-25 15:55:00
9:15 AM,33.8,26.6,75,30.36,10.0,Calm,Calm,-,N/A,,Scattered Clouds,0,2013-01-25 16:15:00
9:35 AM,37.4,28.4,70,30.36,10.0,East,3.5,-,N/A,,Clear,100,2013-01-25 16:35:00
9:55 AM,39.2,30.2,70,30.36,10.0,East,5.8,-,N/A,,Clear,80,2013-01-25 16:55:00
10:15 AM,41.0,30.2,65,30.35,10.0,Calm,Calm,-,N/A,,Clear,0,2013-01-25 17:15:00
10:35 AM,39.2,30.2,70,30.36,10.0,SSE,3.5,-,N/A,,Mostly Cloudy,160,2013-01-25 17:35:00
10:55 AM,39.2,30.2,70,30.36,10.0,SSW,3.5,-,N/A,,Overcast,210,2013-01-25 17:55:00
11:15 AM,41.0,30.2,65,30.34,10.0,South,3.5,-,N/A,,Mostly Cloudy,180,2013-01-25 18:15:00
11:35 AM,41.0,30.2,65,30.32,10.0,ESE,8.1,-,N/A,,Partly Cloudy,110,2013-01-25 18:35:00
11:55 AM,41.0,32.0,70,30.32,10.0,SSE,3.5,-,N/A,,Mostly Cloudy,160,2013-01-25 18:55:00
12:15 PM,42.8,32.0,66,30.31,10.0,Calm,Calm,-,N/A,,Overcast,0,2013-01-25 19:15:00
12:35 PM,42.8,32.0,66,30.30,10.0,Calm,Calm,-,N/A,,Overcast,0,2013-01-25 19:35:00
12:55 PM,42.8,32.0,66,30.28,10.0,ESE,5.8,-,N/A,,Overcast,110,2013-01-25 19:55:00
1:15 PM,44.6,33.8,66,30.27,10.0,ESE,5.8,-,N/A,,Overcast,120,2013-01-25 20:15:00
1:35 PM,44.6,33.8,66,30.26,10.0,SE,4.6,-,N/A,,Overcast,130,2013-01-25 20:35:00
1:55 PM,44.6,33.8,66,30.25,10.0,Calm,Calm,-,N/A,,Overcast,0,2013-01-25 20:55:00
2:15 PM,44.6,33.8,66,30.25,10.0,South,3.5,-,N/A,,Overcast,170,2013-01-25 21:15:00
2:35 PM,44.6,33.8,66,30.24,10.0,SE,5.8,-,N/A,,Overcast,130,2013-01-25 21:35:00
2:55 PM,46.4,33.8,62,30.24,10.0,SE,4.6,-,N/A,,Mostly Cloudy,130,2013-01-25 21:55:00
3:15 PM,46.4,33.8,62,30.25,10.0,East,4.6,-,N/A,,Overcast,100,2013-01-25 22:15:00
3:35 PM,46.4,33.8,62,30.25,10.0,SSE,5.8,-,N/A,,Overcast,160,2013-01-25 22:35:00
3:55 PM,46.4,33.8,62,30.24,10.0,ESE,4.6,-,N/A,,Scattered Clouds,120,2013-01-25 22:55:00
4:15 PM,46.4,33.8,62,30.24,10.0,East,5.8,-,N/A,,Partly Cloudy,80,2013-01-25 23:15:00
4:35 PM,44.6,33.8,66,30.23,10.0,ESE,5.8,-,N/A,,Clear,110,2013-01-25 23:35:00
4:55 PM,44.6,33.8,66,30.23,10.0,SSE,4.6,-,N/A,,Clear,150,2013-01-25 23:55:00
5:15 PM,42.8,32.0,66,30.23,10.0,South,5.8,-,N/A,,Clear,170,2013-01-26 00:15:00
5:35 PM,42.8,30.2,61,30.24,10.0,Calm,Calm,-,N/A,,Mostly Cloudy,0,2013-01-26 00:35:00
5:55 PM,42.8,32.0,66,30.25,10.0,NW,4.6,-,N/A,,Overcast,310,2013-01-26 00:55:00
6:15 PM,41.0,30.2,65,30.26,10.0,West,11.5,-,N/A,,Mostly Cloudy,270,2013-01-26 01:15:00
6:35 PM,39.2,30.2,70,30.26,10.0,West,8.1,-,N/A,,Overcast,280,2013-01-26 01:35:00
6:55 PM,39.2,30.2,70,30.26,10.0,Calm,Calm,-,N/A,,Overcast,0,2013-01-26 01:55:00
7:15 PM,41.0,30.2,65,30.26,10.0,Calm,Calm,-,N/A,,Overcast,0,2013-01-26 02:15:00
7:35 PM,41.0,30.2,65,30.26,10.0,West,3.5,-,N/A,,Overcast,270,2013-01-26 02:35:00
7:55 PM,35.6,28.4,75,30.26,10.0,ESE,6.9,-,N/A,,Overcast,110,2013-01-26 02:55:00
8:15 PM,35.6,30.2,81,30.26,10.0,East,8.1,-,N/A,,Mostly Cloudy,100,2013-01-26 03:15:00
8:35 PM,33.8,28.4,81,30.26,10.0,East,4.6,-,N/A,,Scattered Clouds,100,2013-01-26 03:35:00
8:55 PM,33.8,28.4,81,30.25,10.0,East,3.5,-,N/A,,Partly Cloudy,100,2013-01-26 03:55:00
9:15 PM,33.8,28.4,81,30.26,10.0,Calm,Calm,-,N/A,,Clear,0,2013-01-26 04:15:00
9:35 PM,30.2,28.4,93,30.26,10.0,Calm,Calm,-,N/A,,Clear,0,2013-01-26 04:35:00
9:55 PM,32.0,30.2,93,30.26,10.0,North,5.8,-,N/A,,Clear,10,2013-01-26 04:55:00
10:15 PM,30.2,26.6,86,30.26,10.0,Calm,Calm,-,N/A,,Clear,0,2013-01-26 05:15:00
10:35 PM,30.2,24.8,80,30.25,10.0,Calm,Calm,-,N/A,,Clear,0,2013-01-26 05:35:00
10:55 PM,28.4,26.6,93,30.26,10.0,Calm,Calm,-,N/A,,Clear,0,2013-01-26 05:55:00
11:15 PM,28.4,24.8,86,30.26,10.0,Calm,Calm,-,N/A,,Clear,0,2013-01-26 06:15:00
11:35 PM,30.2,26.6,86,30.26,10.0,ENE,5.8,-,N/A,,Clear,70,2013-01-26 06:35:00
11:55 PM,30.2,26.6,86,30.26,10.0,ENE,6.9,-,N/A,,Clear,60,2013-01-26 06:55:00